Location: Pallagorio
(39.3000°N, 16.9000°E)
Time: 21:43:20
(UTC+00:00)

Cosmos 1626 Rocket - Pass Details

Date: 24 January 2021
Orbit: 603 x 631 km, 82.5° (Epoch: 02 March)

Event Time Altitude Azimuth Distance (km) Brightness Sun altitude
Rises 17:12:34 0° 190° (S) 2,865 7.3 -13.4°
Reaches altitude 10° 17:14:46 10° 191° (SSW) 1,969 6.5 -13.8°
Maximum altitude 17:19:07 76° 278° (W) 642 3.7 -14.6°
Drops below altitude 10° 17:23:34 10° 4° (N) 2,002 6.0 -15.5°
Sets 17:25:49 0° 6° (N) 2,917 6.8 -15.9°
